When you browse on this site, cookies collect data to enhance your experience and personalize the content and advertising you see.
Visit our Privacy Policy to learn more. By continuing to use the site, you agree to this use of cookies and data.
  • în România
  • Lista ţărilor
  • Pe 7 zile
  • Temperatura apei
  • Hartă satelitară
  • Meteo pe hartă
  • Widget-uri
  • user-avatar
    Intrare

    Meteo pe oră la Saint-Herblain

    Astăzi, 20 Iunie, Joi

    Timp Temperatura Precipitaţii Vânt Presiune Umiditate
    00:00 +14°C° 0 mm 3 m/s 758 mmHg 93%
    01:00 +14°C° 0 mm 2 m/s 758 mmHg 93%
    02:00 +14°C° 0 mm 2 m/s 758 mmHg 92%
    03:00 +13°C° 0 mm 2 m/s 758 mmHg 91%
    04:00 +13°C° 0 mm 2 m/s 758 mmHg 89%
    05:00 +13°C° 0 mm 2 m/s 758 mmHg 88%
    06:00 +13°C° 0 mm 2 m/s 759 mmHg 88%
    07:00 +15°C° 0 mm 2 m/s 759 mmHg 78%
    08:00 +16°C° 0 mm 2 m/s 759 mmHg 68%
    09:00 +17°C° 0 mm 2 m/s 759 mmHg 58%
    10:00 +18°C° 0 mm 3 m/s 759 mmHg 55%
    11:00 +19°C° 0 mm 3 m/s 760 mmHg 52%
    12:00 +20°C° 0 mm 3 m/s 760 mmHg 49%
    13:00 +20°C° 0 mm 3 m/s 760 mmHg 51%
    14:00 +20°C° 0 mm 4 m/s 759 mmHg 53%
    15:00 +20°C° 0 mm 5 m/s 759 mmHg 55%
    16:00 +19°C° 0 mm 4 m/s 759 mmHg 59%
    17:00 +19°C° 0 mm 4 m/s 760 mmHg 64%
    18:00 +18°C° 0 mm 4 m/s 760 mmHg 68%
    19:00 +15°C° 0 mm 4 m/s 760 mmHg 75%
    20:00 +14°C° 0 mm 3 m/s 760 mmHg 81%
    21:00 +12°C° 0 mm 3 m/s 761 mmHg 88%
    22:00 +13°C° 0 mm 2 m/s 761 mmHg 90%
    23:00 +13°C° 0 mm 2 m/s 761 mmHg 91%

    Mâine, 21 Iunie, Vineri

    Timp Temperatura Precipitaţii Vânt Presiune Umiditate
    00:00 +12°C° 0 mm 2 m/s 761 mmHg 92%
    01:00 +12°C° 0 mm 2 m/s 761 mmHg 92%
    02:00 +10°C° 0 mm 2 m/s 761 mmHg 92%
    03:00 +10°C° 0 mm 2 m/s 761 mmHg 93%
    04:00 +10°C° 0 mm 3 m/s 761 mmHg 89%
    05:00 +11°C° 0 mm 3 m/s 762 mmHg 86%
    06:00 +12°C° 0 mm 3 m/s 762 mmHg 83%
    07:00 +14°C° 0 mm 3 m/s 762 mmHg 76%
    08:00 +16°C° 0 mm 3 m/s 762 mmHg 69%
    09:00 +18°C° 0 mm 3 m/s 762 mmHg 62%
    10:00 +19°C° 0 mm 3 m/s 762 mmHg 59%
    11:00 +20°C° 0 mm 3 m/s 762 mmHg 55%
    12:00 +21°C° 0 mm 3 m/s 762 mmHg 52%
    13:00 +21°C° 0 mm 3 m/s 762 mmHg 52%
    14:00 +21°C° 0 mm 3 m/s 762 mmHg 52%
    15:00 +21°C° 0 mm 3 m/s 762 mmHg 52%
    16:00 +21°C° 0 mm 3 m/s 762 mmHg 56%
    17:00 +20°C° 0 mm 3 m/s 762 mmHg 60%
    18:00 +20°C° 0 mm 4 m/s 762 mmHg 64%
    19:00 +18°C° 0 mm 4 m/s 762 mmHg 71%
    20:00 +16°C° 0 mm 3 m/s 762 mmHg 78%
    21:00 +13°C° 0 mm 3 m/s 762 mmHg 85%
    22:00 +12°C° 0 mm 3 m/s 762 mmHg 87%
    23:00 +11°C° 0 mm 3 m/s 762 mmHg 88%

    Poimâine, 22 Iunie, Sâmbătă

    Timp Temperatura Precipitaţii Vânt Presiune Umiditate
    00:00 +11°C° 0 mm 3 m/s 762 mmHg 90%
    01:00 +11°C° 0 mm 3 m/s 762 mmHg 91%
    02:00 +11°C° 0 mm 3 m/s 762 mmHg 93%
    03:00 +11°C° 0 mm 3 m/s 761 mmHg 94%
    04:00 +11°C° 0 mm 3 m/s 761 mmHg 92%
    05:00 +12°C° 0 mm 3 m/s 761 mmHg 89%
    06:00 +13°C° 0 mm 3 m/s 761 mmHg 87%
    07:00 +16°C° 0 mm 3 m/s 761 mmHg 80%
    08:00 +18°C° 0 mm 4 m/s 761 mmHg 73%
    09:00 +20°C° 0 mm 4 m/s 761 mmHg 67%
    10:00 +21°C° 0 mm 4 m/s 761 mmHg 62%
    11:00 +22°C° 0 mm 4 m/s 760 mmHg 57%
    12:00 +23°C° 0 mm 4 m/s 760 mmHg 52%
    13:00 +25°C° 0 mm 4 m/s 760 mmHg 50%
    14:00 +25°C° 0 mm 4 m/s 759 mmHg 49%
    15:00 +25°C° 0 mm 3 m/s 759 mmHg 48%
    16:00 +25°C° 0 mm 3 m/s 759 mmHg 52%
    17:00 +24°C° 0 mm 2 m/s 759 mmHg 57%
    18:00 +24°C° 0 mm 2 m/s 758 mmHg 62%
    19:00 +21°C° 0 mm 2 m/s 759 mmHg 66%
    20:00 +19°C° 0 mm 2 m/s 759 mmHg 69%
    21:00 +18°C° 0 mm 3 m/s 759 mmHg 73%
    22:00 +17°C° 0 mm 3 m/s 759 mmHg 76%
    23:00 +17°C° 0 mm 3 m/s 758 mmHg 80%

    23 Iunie, Duminică

    Timp Temperatura Precipitaţii Vânt Presiune Umiditate
    00:00 +16°C° 0 mm 3 m/s 758 mmHg 83%
    01:00 +16°C° 0 mm 3 m/s 758 mmHg 87%
    02:00 +16°C° 0 mm 3 m/s 758 mmHg 90%
    03:00 +14°C° 0 mm 3 m/s 757 mmHg 94%
    04:00 +16°C° 0 mm 3 m/s 757 mmHg 91%
    05:00 +17°C° 0 mm 3 m/s 757 mmHg 89%
    06:00 +18°C° 0 mm 3 m/s 757 mmHg 87%
    07:00 +20°C° 0 mm 4 m/s 757 mmHg 81%
    08:00 +21°C° 0 mm 4 m/s 757 mmHg 75%
    09:00 +23°C° 0 mm 4 m/s 757 mmHg 69%
    10:00 +25°C° 0 mm 4 m/s 757 mmHg 65%
    11:00 +27°C° 0 mm 4 m/s 756 mmHg 61%
    12:00 +28°C° 0 mm 4 m/s 756 mmHg 57%
    13:00 +28°C° 0 mm 4 m/s 756 mmHg 56%
    14:00 +29°C° 0 mm 5 m/s 755 mmHg 55%
    15:00 +29°C° 0 mm 5 m/s 755 mmHg 54%
    16:00 +29°C° 0 mm 4 m/s 755 mmHg 58%
    17:00 +28°C° 0 mm 4 m/s 755 mmHg 61%
    18:00 +28°C° 0 mm 3 m/s 755 mmHg 65%
    19:00 +25°C° 0 mm 3 m/s 755 mmHg 71%
    20:00 +23°C° 0 mm 2 m/s 755 mmHg 78%
    21:00 +19°C° 0 mm 2 m/s 756 mmHg 84%
    22:00 +19°C° 0 mm 2 m/s 756 mmHg 84%
    23:00 +19°C° 0 mm 2 m/s 756 mmHg 84%

    24 Iunie, Luni

    Timp Temperatura Precipitaţii Vânt Presiune Umiditate
    00:00 +19°C° 0 mm 2 m/s 757 mmHg 83%
    01:00 +18°C° 0.3 mm 2 m/s 757 mmHg 86%
    02:00 +19°C° 0.3 mm 1 m/s 757 mmHg 89%
    03:00 +19°C° 0.3 mm 1 m/s 757 mmHg 91%
    04:00 +19°C° 0.1 mm 1 m/s 758 mmHg 90%
    05:00 +19°C° 0.1 mm 1 m/s 758 mmHg 89%
    06:00 +20°C° 0.1 mm 1 m/s 758 mmHg 87%
    07:00 +20°C° 0 mm 2 m/s 758 mmHg 81%
    08:00 +21°C° 0 mm 2 m/s 759 mmHg 75%
    09:00 +24°C° 0 mm 2 m/s 759 mmHg 69%
    10:00 +25°C° 0.1 mm 3 m/s 759 mmHg 65%
    11:00 +26°C° 0.1 mm 3 m/s 759 mmHg 61%
    12:00 +27°C° 0.1 mm 3 m/s 759 mmHg 57%
    13:00 +28°C° 0 mm 3 m/s 759 mmHg 56%
    14:00 +28°C° 0 mm 4 m/s 759 mmHg 55%
    15:00 +29°C° 0 mm 4 m/s 759 mmHg 54%
    16:00 +28°C° 0 mm 4 m/s 758 mmHg 59%
    17:00 +28°C° 0 mm 4 m/s 758 mmHg 63%
    18:00 +27°C° 0 mm 4 m/s 758 mmHg 68%
    19:00 +26°C° 0 mm 4 m/s 758 mmHg 75%
    20:00 +23°C° 0 mm 4 m/s 758 mmHg 82%
    21:00 +22°C° 0 mm 5 m/s 758 mmHg 88%
    22:00 +21°C° 0 mm 5 m/s 758 mmHg 90%
    23:00 +21°C° 0 mm 5 m/s 757 mmHg 91%

    25 Iunie, Marţi

    Timp Temperatura Precipitaţii Vânt Presiune Umiditate
    00:00 +20°C° 0 mm 5 m/s 757 mmHg 93%
    01:00 +20°C° 0 mm 4 m/s 757 mmHg 94%
    02:00 +20°C° 0 mm 4 m/s 756 mmHg 95%
    03:00 +20°C° 0 mm 3 m/s 756 mmHg 96%
    04:00 +21°C° 0 mm 3 m/s 756 mmHg 93%
    05:00 +21°C° 0 mm 2 m/s 756 mmHg 89%
    06:00 +23°C° 0 mm 2 m/s 756 mmHg 85%
    07:00 +25°C° 0 mm 2 m/s 756 mmHg 79%
    08:00 +26°C° 0 mm 3 m/s 757 mmHg 72%
    09:00 +27°C° 0 mm 3 m/s 757 mmHg 66%
    10:00 +28°C° 0 mm 3 m/s 757 mmHg 63%
    11:00 +30°C° 0 mm 4 m/s 758 mmHg 61%
    12:00 +32°C° 0 mm 5 m/s 758 mmHg 59%
    13:00 +29°C° 0 mm 5 m/s 759 mmHg 62%
    14:00 +28°C° 0 mm 5 m/s 759 mmHg 66%
    15:00 +27°C° 0 mm 5 m/s 759 mmHg 70%
    16:00 +26°C° 0 mm 4 m/s 760 mmHg 71%
    17:00 +23°C° 0 mm 4 m/s 760 mmHg 73%
    18:00 +22°C° 0 mm 3 m/s 760 mmHg 74%
    19:00 +21°C° 0 mm 3 m/s 761 mmHg 77%
    20:00 +20°C° 0 mm 2 m/s 761 mmHg 79%
    21:00 +19°C° 0 mm 2 m/s 761 mmHg 82%
    22:00 +19°C° 0 mm 2 m/s 761 mmHg 83%
    23:00 +19°C° 0 mm 2 m/s 762 mmHg 85%
    Arată mai mult